Theta_e
332 332 331 331 330 329 327 326 325 323 322 321 321 323 327 326 325 326 325 324 324 326 327 325 321 317 316 319 321 320 319 320 322 322 321 321 322 321 320 320 322 323 323 323 323 324 325 327 328 328 327 327 326 324 322 322 322 322 321 322 322 323 322 319 318 316 316 316 315 313 312 310 311 311 310 309 309 310 310 310 311 312 313 313 313
330 331 329 329 330 328 326 326 326 324 323 322 322 325 326 325 323 323 324 325 326 327 327 324 321 319 320 321 323 321 320 320 320 320 320 320 320 318 318 320 322 322 323 323 322 322 324 327 328 327 326 326 324 322 321 321 320 320 320 321 320 321 321 319 318 316 315 315 314 313 312 311 312 312 310 310 310 310 310 310 311 312 313 313 314
330 330 329 329 329 326 324 325 326 326 324 324 325 326 326 326 324 323 324 326 326 327 326 322 320 320 320 320 320 320 321 319 319 320 320 318 318 318 320 321 322 322 323 324 323 323 324 325 326 326 324 323 322 321 320 319 319 318 318 320 319 319 320 319 318 316 315 314 314 313 312 311 312 312 311 310 310 310 311 311 311 312 313 314 313
329 329 329 329 327 324 324 326 326 326 325 325 326 326 325 326 325 325 325 326 326 326 324 322 321 320 319 318 318 319 319 318 319 320 318 317 318 319 321 321 321 322 322 322 323 323 322 322 324 324 322 321 321 320 318 318 318 317 316 318 318 318 319 319 318 317 315 314 313 313 313 311 312 312 311 311 311 311 312 312 312 314 314 314 314
328 329 328 328 326 324 325 326 326 326 326 326 326 326 326 326 325 325 326 326 326 325 323 321 321 319 317 317 317 319 318 318 319 318 316 318 319 319 320 320 321 322 322 321 322 322 321 321 323 323 321 321 321 320 318 319 319 316 316 317 316 317 319 318 318 318 316 315 313 313 313 311 311 313 312 311 312 312 312 313 313 315 314 313 313
328 328 326 326 325 324 325 325 325 324 326 327 326 326 326 325 324 324 325 326 325 324 322 322 320 317 316 317 318 318 318 317 318 316 316 318 318 318 320 320 320 321 321 320 320 321 321 321 322 321 320 321 322 320 319 319 319 317 317 316 315 316 317 316 317 317 316 315 313 313 313 311 311 313 313 312 313 313 313 313 314 315 314 313 313
328 325 324 324 324 324 324 324 323 322 324 326 326 326 325 323 322 323 324 325 325 323 322 321 319 316 316 317 317 317 316 316 316 316 316 318 318 318 319 320 320 320 319 320 320 320 320 321 321 321 319 320 321 321 321 320 319 318 318 317 317 316 315 315 316 316 315 315 314 312 313 312 311 313 314 313 314 314 313 314 314 314 314 314 314
327 325 324 324 323 323 322 323 323 323 324 325 325 325 325 323 323 322 322 324 324 324 322 320 317 316 316 317 316 316 316 316 316 316 317 317 318 318 318 319 319 318 319 319 318 319 319 319 320 320 319 320 320 320 321 320 320 320 319 318 318 317 316 315 316 316 316 316 315 314 314 314 313 313 314 314 314 314 314 314 315 314 314 314 314
328 327 325 323 323 322 321 321 323 324 325 325 325 325 324 324 323 322 322 322 322 323 322 319 317 316 316 316 316 316 317 317 317 318 318 319 319 319 319 320 319 319 320 320 319 319 319 319 319 319 319 320 320 320 320 319 319 320 319 318 319 319 318 317 316 316 316 316 316 316 316 316 315 314 314 314 315 315 315 315 315 315 315 315 314
328 328 327 324 322 322 322 321 322 325 326 325 324 324 324 323 323 323 323 322 320 321 322 319 317 316 316 316 317 317 318 318 318 320 321 321 321 321 321 322 322 322 322 322 321 321 321 320 320 320 319 319 319 319 319 318 319 319 319 318 318 319 319 318 317 317 317 317 317 317 316 316 316 316 315 315 315 315 315 315 316 315 315 315 315
328 328 328 325 324 323 324 323 323 324 325 325 324 324 323 323 323 322 322 321 320 321 321 319 318 317 316 317 318 318 319 319 319 320 322 322 322 323 323 322 322 322 322 323 323 322 322 321 321 321 320 319 318 317 317 317 317 318 318 319 319 319 318 319 318 318 318 318 318 318 317 317 317 317 316 316 316 316 315 315 316 316 315 315 315
327 327 327 326 325 325 326 326 325 325 325 324 324 324 323 323 322 322 321 320 320 320 320 319 318 318 317 318 319 319 319 320 320 320 322 323 323 322 323 323 323 322 322 322 321 322 322 321 321 320 319 318 317 316 316 315 315 315 316 316 317 318 318 318 318 318 318 319 318 318 318 317 317 317 317 317 317 316 316 316 315 316 316 316 315
326 327 326 326 326 326 327 327 327 326 325 324 324 324 323 322 322 322 321 321 320 320 320 319 318 318 318 319 320 319 319 320 320 320 321 322 323 322 322 323 323 322 322 321 321 321 321 321 321 319 318 318 317 316 316 315 316 317 317 316 315 315 316 317 316 316 316 317 318 318 318 318 318 318 317 318 317 317 317 317 316 316 316 316 316
324 324 325 325 324 324 325 325 325 325 324 324 324 323 321 321 322 322 321 320 320 319 320 320 319 319 319 320 320 320 319 318 318 319 320 321 322 321 321 321 322 322 322 320 320 320 320 320 320 319 319 318 317 316 316 315 316 317 318 319 318 316 315 316 315 315 315 315 315 316 317 317 318 318 317 317 317 317 317 317 317 316 316 316 316
323 323 324 323 323 321 321 322 322 322 322 323 323 321 318 319 321 320 320 320 319 319 320 320 319 319 320 320 321 321 320 317 315 316 317 318 318 318 317 318 319 320 321 321 320 320 320 320 319 318 319 318 317 316 316 316 316 316 317 319 320 319 318 317 316 316 315 315 315 314 314 315 316 317 318 318 317 317 317 317 317 316 316 317 317
321 322 322 323 322 321 321 320 320 320 321 322 322 319 316 317 319 319 318 318 317 318 319 320 320 319 319 320 320 320 321 319 317 316 315 314 314 314 314 315 316 317 318 319 319 318 319 319 319 319 319 319 318 317 316 315 316 316 316 318 320 320 319 318 317 317 316 317 316 316 316 315 315 316 317 318 318 318 318 317 316 317 317 317 316
319 320 320 321 322 322 322 321 320 319 319 321 321 319 317 319 320 318 317 317 316 314 315 317 318 319 320 320 320 319 318 317 316 316 315 314 314 314 314 315 317 317 318 318 318 318 318 319 319 318 317 317 318 318 316 316 316 316 316 317 319 320 319 318 318 317 316 316 316 316 317 316 316 316 316 316 317 318 318 318 317 317 317 317 316
316 317 317 318 319 321 321 321 321 321 320 320 320 319 319 320 319 317 317 318 316 313 311 311 312 315 317 317 315 314 313 313 313 313 313 314 314 314 315 316 317 317 317 317 318 318 317 317 317 317 316 317 317 317 316 316 317 317 316 317 319 320 319 319 318 318 317 316 316 316 316 316 316 316 316 316 316 316 317 318 317 317 317 317 316
313 315 315 316 317 318 319 319 320 321 321 321 320 319 319 319 318 317 317 318 317 315 314 313 313 312 312 310 310 310 310 311 311 311 312 314 315 315 315 315 316 317 317 317 318 318 318 318 318 318 318 317 318 318 317 317 318 318 317 317 319 320 319 319 318 318 318 317 316 316 317 317 316 316 316 317 317 317 316 316 317 317 316 316 315
310 311 314 315 316 316 316 317 317 318 319 320 320 319 319 319 317 316 317 318 318 317 316 316 316 315 312 311 311 313 314 313 314 314 315 315 316 316 316 316 316 317 317 317 318 319 319 318 318 317 317 316 316 316 316 316 317 317 317 317 318 318 318 318 317 317 317 318 317 316 316 317 316 315 315 316 317 317 316 315 315 316 315 315 313
308 309 311 313 314 314 314 314 315 315 315 316 317 317 318 318 318 316 317 318 317 317 317 317 316 315 312 312 312 313 315 316 316 316 316 316 317 317 317 318 318 318 318 317 318 318 318 317 317 317 316 315 314 313 313 313 314 314 315 316 316 316 316 316 316 316 316 316 316 316 315 316 316 315 315 315 315 316 315 314 314 314 314 314 313
309 309 309 310 311 312 313 313 313 314 314 314 314 315 315 317 317 317 317 317 317 317 317 317 317 316 315 314 314 314 315 315 315 316 315 316 316 317 317 317 316 316 315 315 316 317 317 316 317 316 315 314 313 312 311 311 311 311 311 312 313 315 315 315 315 315 315 315 316 316 316 316 316 315 314 314 314 314 314 313 313 313 313 313 312
308 309 309 308 308 309 310 311 312 312 313 314 314 313 313 314 315 314 315 316 316 316 316 316 317 317 316 316 315 314 314 313 313 312 313 313 313 313 313 312 312 313 312 312 313 314 315 315 316 315 315 314 313 311 310 310 310 310 309 310 311 313 314 315 314 314 314 315 315 316 316 315 315 314 313 313 313 313 312 312 312 312 312 311 311
307 307 307 308 308 308 308 309 309 309 310 310 311 311 312 312 312 312 313 313 314 314 315 316 316 316 316 315 314 314 313 312 310 310 309 310 309 309 309 309 309 308 308 308 309 309 310 311 312 312 312 311 310 309 308 308 308 308 308 308 309 311 313 314 314 313 313 313 313 314 314 314 313 313 311 311 311 311 311 311 310 311 310 310 309
306 306 304 304 304 304 305 306 306 307 307 307 307 307 308 308 309 310 310 310 311 311 312 312 313 313 314 314 313 312 311 311 310 309 308 308 307 307 306 306 306 306 306 306 306 306 306 307 307 308 308 308 307 307 307 307 307 307 308 308 308 309 312 313 313 312 312 312 312 312 312 312 311 311 310 310 309 309 309 309 309 309 309 309 308
306 305 304 302 301 301 301 301 302 303 304 304 305 305 306 306 307 308 308 308 307 307 308 309 309 310 311 311 310 309 310 310 310 309 308 308 307 306 304 302 302 304 303 303 303 303 302 302 303 302 303 304 305 305 306 306 306 306 307 307 307 308 310 311 312 312 312 311 311 311 311 310 310 309 308 308 308 308 307 307 307 307 307 306 305
306 305 304 303 302 301 300 299 299 299 299 300 301 301 302 303 304 305 306 306 306 306 306 307 307 308 308 308 307 307 309 309 309 308 308 308 308 307 305 300 299 301 302 302 302 301 299 299 299 299 300 302 303 303 304 305 306 306 306 306 306 307 307 308 309 310 311 311 310 310 309 309 308 308 307 307 307 307 306 306 307 306 303 300 300
302 302 302 301 300 300 299 298 298 297 297 297 297 298 298 298 299 300 301 303 304 305 305 306 306 306 307 307 306 306 307 308 308 308 308 308 308 307 303 299 298 302 304 304 302 300 299 298 299 300 303 305 305 305 305 305 306 306 305 305 305 305 306 306 306 308 309 309 309 309 308 307 307 308 307 307 307 306 305 305 305 302 299 297 297
297 297 298 299 300 300 300 300 300 299 298 298 297 297 297 297 297 297 297 298 300 301 302 304 304 304 304 306 306 305 305 306 305 304 304 303 302 300 298 296 297 299 300 299 298 298 298 299 300 302 305 305 305 305 305 305 305 305 305 304 303 303 304 305 305 306 307 308 308 308 308 307 307 307 307 306 305 304 304 303 301 298 297 297 297
298 297 297 298 300 301 301 302 302 302 301 301 300 300 299 298 297 297 296 296 297 297 298 299 300 300 300 301 302 302 301 300 300 299 298 298 298 297 297 298 297 297 297 297 297 298 298 300 302 304 305 305 305 305 304 304 304 304 304 304 303 302 302 303 304 304 305 306 307 307 307 307 306 306 304 304 304 303 301 299 298 296 296 297 297
301 300 299 299 300 301 301 301 302 302 302 303 302 302 302 301 300 299 298 298 297 297 297 296 297 297 298 297 298 298 298 298 298 298 298 298 298 298 298 298 297 298 298 298 297 299 301 302 304 304 304 304 304 304 304 304 304 304 304 303 303 303 302 302 303 303 304 305 305 306 305 305 304 302 301 301 301 300 298 297 296 296 297 297 297
302 302 301 301 301 301 301 302 302 302 302 302 302 302 302 302 301 301 301 300 300 299 298 297 296 296 297 297 297 298 299 299 298 298 298 297 297 297 297 297 298 300 300 300 300 302 303 304 304 304 303 303 303 303 303 303 303 303 303 303 303 303 303 303 303 303 303 303 304 304 304 303 301 300 300 299 299 298 297 296 296 296 297 297 297
299 301 302 302 302 302 302 302 302 302 302 302 302 302 302 302 302 302 302 301 301 301 300 299 298 298 297 296 297 297 298 298 297 297 297 296 297 298 299 300 300 301 301 302 303 303 303 303 303 303 302 302 302 303 303 303 303 302 302 302 302 301 302 302 302 302 302 302 302 303 303 301 300 299 298 298 297 297 296 296 296 296 297 297 298
298 300 301 301 301 302 302 302 302 302 302 302 302 302 302 302 302 301 302 302 301 301 300 300 299 299 298 296 296 296 297 297 297 296 296 297 299 300 300 300 301 301 301 302 302 302 302 302 302 301 301 301 301 301 302 302 301 301 301 301 300 300 300 300 301 301 301 301 301 301 301 300 299 298 297 297 297 296 296 296 297 297 298 298 298
299 299 300 300 301 301 300 300 301 302 302 301 301 301 301 301 301 301 301 301 301 301 301 300 300 300 299 297 296 297 298 298 297 297 297 299 300 300 300 300 301 301 301 301 302 301 301 301 301 301 301 301 301 301 300 300 300 299 299 299 299 299 299 300 300 300 300 300 300 300 300 299 299 298 297 297 297 296 296 297 298 298 298 297 296
300 299 299 300 300 300 300 299 299 300 301 301 300 300 300 300 301 300 300 300 300 301 301 301 300 300 299 297 297 298 298 298 298 298 298 298 299 299 300 300 300 300 300 301 301 300 301 301 300 300 300 299 299 299 299 299 299 299 298 298 298 298 299 300 300 299 299 299 299 299 299 299 298 298 297 296 296 296 297 297 297 297 295 294 294
299 298 299 299 300 300 299 298 298 299 300 300 300 300 300 300 300 300 299 299 299 300 300 300 300 299 298 298 298 299 299 299 299 298 298 298 298 298 299 299 300 300 300 300 300 300 300 300 300 299 299 298 298 297 297 297 297 297 297 297 297 297 298 298 299 298 298 298 298 298 298 297 297 297 296 296 296 296 296 295 295 294 293 292 292
298 297 297 299 299 299 299 298 298 299 300 300 299 299 299 299 299 299 299 298 299 299 299 299 299 298 297 297 298 299 299 299 299 298 298 298 298 299 299 299 299 299 299 299 299 299 299 299 299 298 298 297 297 297 297 296 296 296 297 297 297 297 297 297 298 298 297 297 297 297 296 296 296 296 296 295 295 294 293 293 293 293 293 292 292
298 297 297 297 298 298 298 298 298 298 299 299 298 298 298 299 299 298 298 298 298 298 298 298 298 297 297 296 297 298 299 299 299 298 298 298 298 298 297 297 296 297 297 297 297 297 297 297 297 297 297 297 297 297 297 297 297 296 297 298 298 298 297 297 297 297 297 296 296 296 295 295 295 295 294 294 293 293 293 293 292 292 292 292 292
298 298 297 297 297 298 298 298 298 298 298 298 298 298 298 298 298 298 298 297 297 297 297 297 297 297 296 296 296 297 298 298 298 298 297 297 296 296 296 295 296 296 296 296 296 296 297 297 297 297 297 298 298 297 297 297 297 297 297 297 297 298 297 297 297 297 296 296 295 295 295 295 294 294 294 293 293 293 293 293 292 292 292 292 292
298 298 297 297 298 298 298 297 297 297 297 297 298 297 297 297 297 297 297 296 296 296 297 297 297 296 295 295 296 297 298 298 298 297 297 296 295 295 296 296 296 296 296 296 296 297 297 297 297 297 297 298 297 297 297 297 297 297 297 296 297 297 297 297 296 296 296 295 295 295 294 294 293 293 293 293 293 293 292 292 293 292 292 292 292
297 297 298 298 298 298 298 298 297 297 297 297 297 297 297 297 296 296 296 296 296 296 296 296 296 295 294 294 295 297 297 297 297 297 296 295 295 295 296 296 296 296 296 296 296 297 296 296 297 296 296 297 297 297 297 297 297 297 297 296 296 297 296 296 296 295 295 295 294 294 293 293 293 293 293 293 292 292 292 292 292 292 292 292 292
297 297 297 297 297 297 297 297 297 297 296 296 295 296 296 297 296 296 296 295 295 296 296 295 295 295 294 294 295 296 296 296 297 296 296 295 295 296 296 296 295 295 296 296 296 296 296 295 295 295 295 295 295 295 296 296 296 296 296 296 296 296 295 295 295 294 294 294 294 293 293 293 293 293 293 292 292 292 292 292 292 292 292 292 292
297 297 297 297 297 297 297 297 297 296 295 295 295 295 296 296 296 296 295 295 295 295 295 295 295 295 294 294 295 296 296 296 297 296 295 295 295 296 296 295 295 295 295 295 295 295 295 295 294 294 294 294 294 294 294 295 296 296 296 296 295 295 295 294 294 294 294 294 293 293 293 293 293 293 292 292 292 292 292 292 292 292 292 291 291
297 297 297 297 297 297 297 297 297 296 296 296 296 295 296 295 295 295 295 295 295 295 295 295 295 295 295 295 295 296 296 296 296 296 295 295 295 295 295 295 295 295 295 295 295 294 294 294 294 294 294 294 294 294 294 294 295 295 295 295 295 295 294 294 294 294 294 294 293 293 293 293 293 292 292 292 292 292 292 292 292 291 291 291 291
297 297 297 297 297 297 297 297 297 297 296 296 296 296 295 295 295 294 294 294 294 295 295 295 295 295 295 295 295 295 296 296 295 295 295 295 295 295 295 295 295 295 295 295 295 294 294 294 294 294 294 294 294 294 294 294 294 294 295 295 295 295 294 294 294 294 294 294 294 293 293 293 293 292 292 292 292 292 292 291 291 291 291 291 291
297 297 297 297 297 297 297 297 297 297 296 296 296 295 295 295 294 294 293 294 294 295 295 295 295 294 294 294 294 294 295 295 295 295 295 295 295 295 295 295 294 294 294 294 294 294 294 294 294 294 294 293 293 294 294 294 294 294 294 294 294 295 295 294 294 294 294 294 294 293 293 293 293 292 292 291 291 291 291 291 291 290 290 290 290
296 296 297 297 297 297 297 297 296 296 296 296 295 295 295 295 294 294 294 294 295 295 295 295 294 294 294 294 294 294 294 294 294 294 294 294 294 294 294 294 294 294 294 294 293 293 293 293 293 293 293 293 293 293 293 293 293 293 293 293 294 294 294 294 294 294 294 294 294 294 293 293 293 292 291 291 291 291 291 291 291 291 290 290 290
296 296 296 296 296 297 297 297 297 296 296 296 296 295 295 295 295 294 295 295 295 294 294 294 294 294 294 294 294 294 294 294 293 293 293 294 294 295 294 294 294 294 293 293 293 293 293 293 293 293 293 292 292 292 292 291 291 292 292 293 293 293 294 294 294 294 294 294 294 293 293 293 292 292 291 291 291 291 290 290 290 290 290 290 290
296 296 296 296 296 296 296 296 296 297 296 296 296 295 295 295 295 295 295 295 295 295 295 294 294 294 294 294 294 294 293 293 293 293 293 293 294 294 294 294 294 293 293 293 293 293 293 292 292 292 291 291 290 289 289 289 289 289 289 290 291 291 292 292 293 293 293 293 292 292 292 291 291 290 290 290 289 288 288 287 287 287 287 288 288
296 296 296 296 296 296 296 296 296 296 296 296 296 295 295 295 294 294 295 295 295 295 294 294 294 294 294 294 293 293 293 293 293 293 293 293 293 294 294 293 293 293 293 292 292 292 292 291 291 290 289 288 288 288 288 288 288 288 288 288 288 288 289 289 289 289 289 289 289 288 288 288 287 287 287 287 286 286 285 285 284 285 285 286 287
Wind_Speed
12 13 13 15 19 20 20 20 19 18 17 20 22 18 13 14 17 16 13 12 13 13 12 11 9 7 7 9 10 11 11 11 11 9 9 9 7 7 9 8 6 6 6 6 7 7 9 10 10 11 11 11 11 12 11 10 8 7 6 7 11 16 18 18 18 18 17 15 15 12 10 13 15 14 14 15 13 11 11 10 9 8 8 7 7
11 10 12 15 19 20 21 21 21 19 19 20 20 18 13 12 14 14 13 13 14 13 12 11 9 8 9 9 9 10 10 11 11 9 9 9 9 9 10 8 7 7 7 7 6 7 9 9 10 11 11 12 13 12 12 10 9 9 7 6 7 12 16 17 18 19 18 17 15 13 12 14 17 15 13 13 13 11 11 12 12 11 10 9 7
14 12 15 18 21 22 22 21 20 20 20 20 19 18 15 12 12 12 13 14 14 13 12 11 10 9 10 9 9 9 10 11 11 9 10 10 10 10 9 8 9 9 9 9 8 8 8 8 10 11 12 14 12 10 12 11 10 9 7 6 6 9 15 18 17 19 19 17 16 16 15 16 17 16 14 13 12 12 11 11 12 12 12 11 8
16 15 17 20 20 21 23 22 21 20 21 21 20 19 17 15 13 13 13 14 15 14 12 11 10 9 10 9 9 9 9 10 10 9 10 11 10 10 9 9 10 10 9 9 9 8 6 7 11 12 12 15 11 9 11 10 7 7 8 8 6 8 14 16 14 16 17 16 16 17 16 16 16 16 16 14 13 14 13 11 10 10 12 11 9
16 17 18 20 21 22 24 25 23 22 22 21 20 20 18 16 14 14 14 15 15 15 13 11 9 9 9 9 9 9 9 10 9 9 10 11 9 9 10 10 10 9 8 9 8 7 5 6 9 11 12 13 10 9 11 8 5 7 8 7 7 8 10 12 12 13 13 14 16 17 16 16 17 17 18 17 14 14 16 13 8 10 17 16 12
18 19 17 19 23 25 26 25 23 23 23 20 19 19 18 16 14 14 14 14 14 13 13 12 9 9 10 9 9 9 9 9 9 9 11 11 10 9 10 10 9 9 9 8 7 7 8 8 8 9 11 12 9 8 9 6 4 8 7 6 9 11 10 10 11 11 10 11 14 15 17 16 16 18 19 18 15 14 18 17 10 12 23 24 18
20 20 17 19 23 26 26 24 22 23 22 19 17 17 16 15 14 14 14 14 13 12 13 13 11 9 10 10 9 10 9 9 9 9 10 11 10 10 11 10 9 9 9 7 6 7 7 8 7 7 9 11 10 10 10 8 6 8 9 7 8 10 9 10 10 10 10 12 13 14 16 16 15 18 18 18 17 15 16 20 17 17 23 25 22
21 20 18 19 21 24 24 23 22 23 22 20 17 15 15 14 12 12 14 14 13 12 12 13 12 11 11 10 10 10 10 9 10 9 9 10 10 11 11 10 9 10 9 6 7 8 5 5 5 4 5 8 9 10 11 12 11 11 12 11 9 7 9 12 12 10 10 13 14 13 15 16 16 17 18 18 20 19 17 19 22 22 23 23 24
20 20 20 20 21 23 23 22 22 21 21 21 19 16 17 15 11 11 12 12 13 12 10 13 14 11 11 11 11 11 11 11 11 11 10 10 9 9 10 9 8 9 7 6 7 7 5 4 4 4 4 5 6 8 8 10 11 11 11 13 12 9 10 13 14 12 10 12 15 14 15 17 18 18 20 22 22 23 21 19 22 25 25 24 24
19 20 20 22 22 22 23 22 23 21 21 21 18 16 17 16 12 12 12 12 13 12 10 12 13 12 11 12 12 12 12 12 12 12 12 11 10 9 9 7 8 8 7 5 6 6 5 6 6 6 7 7 7 8 8 8 9 10 10 11 12 12 12 13 14 14 12 12 14 14 16 19 20 20 21 22 22 23 23 22 22 25 26 25 25
19 19 19 22 22 22 22 23 24 23 22 21 18 17 17 16 13 12 12 12 13 12 11 12 13 12 12 13 14 14 12 12 13 12 11 12 12 11 9 7 7 7 6 5 5 4 6 9 8 7 9 10 10 9 10 10 10 12 13 13 12 13 13 13 14 15 15 15 16 16 17 18 20 21 21 22 22 23 24 24 24 25 26 25 25
17 18 19 21 21 21 22 24 24 24 22 22 21 19 19 18 15 14 14 13 12 12 11 11 12 12 11 13 15 16 13 12 14 14 12 12 13 12 10 7 5 5 5 5 5 4 5 6 6 6 7 9 10 10 9 10 10 11 13 15 15 15 16 16 16 17 18 19 20 20 21 21 21 21 21 23 24 25 26 26 27 28 28 28 28
14 15 17 19 20 21 22 23 23 23 21 21 21 22 21 20 19 18 17 15 15 14 12 11 11 10 10 12 13 15 15 13 14 15 13 12 11 11 9 7 5 5 5 6 6 6 6 6 5 5 5 7 9 11 11 11 10 10 11 13 15 16 17 18 19 19 21 22 23 23 23 24 25 25 23 24 26 26 27 28 30 30 29 30 31
11 11 12 13 14 16 18 18 17 19 20 20 21 21 21 20 19 19 19 17 16 16 15 15 15 12 11 12 11 11 11 11 12 14 15 13 12 10 9 8 6 5 6 7 7 6 7 8 8 7 7 9 9 10 12 15 15 14 12 12 12 13 14 16 18 19 21 23 25 26 25 26 28 28 28 28 29 29 30 30 31 30 29 29 30
11 12 12 11 9 8 10 12 12 14 17 19 19 18 17 16 15 15 16 16 17 17 16 16 17 14 12 11 10 8 7 7 8 11 12 11 10 9 9 8 7 6 6 6 6 7 8 9 10 9 9 12 12 12 14 16 18 18 16 14 12 12 14 15 16 17 19 21 24 27 27 28 28 28 28 29 30 30 31 31 29 28 29 29 30
15 13 12 11 10 9 8 9 11 13 15 17 18 18 18 17 15 15 14 14 15 17 17 16 16 16 13 11 10 9 6 4 5 6 7 8 8 8 8 8 9 8 8 8 8 8 9 10 11 11 12 14 15 16 17 18 18 18 17 16 14 15 17 17 18 19 19 19 21 23 25 28 28 28 28 29 29 27 27 30 30 31 33 33 31
20 17 14 12 10 11 11 9 10 10 12 14 17 19 18 17 17 16 14 13 13 15 15 14 14 15 15 12 11 9 7 5 4 4 6 7 8 8 8 8 9 9 9 9 9 9 9 11 13 15 16 17 18 18 19 19 18 18 17 18 18 18 20 20 21 22 22 22 23 22 23 25 27 29 29 29 29 27 26 28 32 34 36 35 33
24 22 20 17 15 13 13 14 14 13 11 12 13 16 16 16 16 15 13 12 13 14 14 13 12 12 13 12 10 9 8 7 7 8 11 11 11 11 10 10 10 10 10 10 10 11 12 14 16 18 19 19 19 18 18 19 19 18 19 21 20 20 22 23 24 25 25 25 26 25 24 25 26 29 30 30 30 30 28 29 32 35 35 32 30
23 23 21 20 21 21 18 16 15 14 13 12 10 12 13 15 15 13 11 12 13 13 13 12 10 10 11 12 11 11 11 11 12 13 15 14 13 12 12 12 12 12 12 12 11 12 13 13 15 17 18 17 15 12 13 15 17 18 20 21 22 23 25 25 26 27 28 28 27 27 27 27 25 26 28 30 32 32 31 31 32 33 33 29 26
21 20 19 20 22 23 22 20 19 17 16 13 11 9 7 10 13 11 8 8 10 10 11 11 10 9 10 11 11 10 11 12 13 15 15 14 12 12 12 14 14 13 13 12 11 10 10 10 11 12 11 9 9 8 10 13 15 17 18 21 23 24 25 26 26 27 28 28 28 28 30 29 27 25 27 29 32 33 31 30 30 31 31 30 27
20 18 17 17 19 21 22 21 20 20 18 17 17 15 11 8 10 10 7 6 7 9 10 11 12 12 13 14 14 14 15 15 14 13 14 13 12 13 13 13 13 13 12 10 8 9 9 7 7 8 7 7 8 10 11 13 14 16 17 19 21 22 23 25 25 25 27 28 29 29 30 29 28 28 29 29 30 31 30 30 30 30 30 30 29
19 18 18 17 17 18 20 21 20 18 17 17 18 18 17 15 13 9 7 7 7 6 6 7 9 11 11 12 13 13 14 11 7 5 6 6 7 8 9 8 8 9 9 7 7 8 8 7 8 9 10 11 12 13 14 15 16 17 18 19 20 20 21 22 23 24 26 28 29 30 30 29 29 29 28 28 29 29 29 29 30 30 30 29 29
16 17 17 17 17 16 17 18 18 17 17 17 18 18 17 16 14 11 10 10 11 11 10 8 7 7 6 5 5 5 5 4 3 2 1 2 3 4 5 5 5 6 6 6 7 9 9 9 11 12 14 15 17 17 18 19 19 19 19 19 20 20 20 20 21 23 24 26 28 29 29 30 29 27 26 27 27 27 27 28 28 28 28 27 26
11 12 12 13 13 13 13 14 15 16 16 15 16 16 16 15 13 11 10 11 11 10 8 8 9 8 7 8 7 4 2 1 2 2 2 3 5 5 5 5 6 7 7 8 9 10 11 12 14 15 17 18 19 20 21 21 20 21 20 20 20 20 19 19 19 20 23 25 27 28 29 30 28 25 25 25 24 24 24 24 24 25 25 24 23
8 8 9 9 10 9 9 9 10 11 12 12 13 14 13 12 12 12 12 12 12 10 8 7 8 8 7 9 8 5 2 1 2 4 5 6 6 6 5 6 7 7 8 10 10 11 12 13 14 15 16 17 19 20 20 21 21 20 21 20 19 19 18 16 16 17 20 21 23 24 24 25 23 22 22 22 21 22 22 19 20 22 23 22 22
7 7 8 8 9 8 8 7 7 7 6 7 8 9 9 10 11 11 12 12 12 11 8 7 7 7 8 8 6 3 3 4 5 6 7 7 6 5 7 7 7 7 10 11 11 12 13 13 12 13 15 16 17 17 18 19 19 19 19 18 18 17 16 15 14 16 18 18 19 19 19 20 21 21 21 21 22 22 20 18 18 19 19 19 20
6 6 7 7 7 7 7 6 6 6 5 5 5 4 3 5 7 9 9 10 12 12 11 10 11 10 9 8 4 5 6 6 6 7 7 8 8 10 12 11 10 10 11 11 11 13 14 14 14 14 14 14 15 16 16 15 17 19 19 17 16 15 15 14 13 15 17 19 19 19 20 21 22 21 22 23 23 22 19 18 19 18 15 15 16
3 3 4 5 6 6 6 6 6 6 6 6 4 3 3 3 4 6 7 7 9 11 11 11 12 12 12 10 7 7 8 8 8 7 8 10 12 13 13 12 10 11 12 12 13 14 14 14 14 13 12 12 14 15 14 13 14 17 20 20 19 17 15 13 12 13 15 18 20 21 22 22 21 22 24 25 24 22 20 20 20 17 14 14 15
6 5 6 7 8 8 8 8 7 7 8 9 8 6 6 6 5 4 5 6 7 7 7 8 8 9 11 12 10 8 7 7 8 8 9 10 12 12 11 9 8 9 10 12 12 12 11 10 9 9 10 11 11 11 10 10 12 15 18 21 22 21 18 15 12 12 14 17 20 23 24 23 23 23 24 24 23 21 19 19 17 16 16 16 15
9 8 8 8 9 8 8 9 8 7 8 10 11 11 11 11 10 8 6 4 4 5 6 6 7 8 9 9 9 8 7 6 6 6 7 7 7 7 7 7 7 8 8 9 10 10 10 8 8 9 10 10 10 9 9 10 11 12 15 18 20 22 21 17 14 13 13 15 18 22 23 23 23 22 22 23 22 19 17 16 16 16 16 15 12
9 10 9 9 10 10 9 11 10 8 7 9 10 11 12 12 13 13 13 11 9 7 4 3 5 6 6 5 4 3 2 2 2 3 4 5 6 6 6 7 7 7 9 8 7 8 9 8 7 9 10 11 11 12 14 13 12 12 14 16 17 18 20 20 17 15 14 14 16 19 19 18 18 19 19 19 18 17 16 16 15 13 12 12 11
7 8 9 9 10 11 11 10 10 10 9 8 8 9 10 12 13 14 15 14 15 15 13 10 7 4 3 3 2 2 1 1 2 3 4 5 5 5 5 5 4 7 10 9 8 9 8 7 6 7 9 11 12 13 14 14 13 13 15 15 15 16 18 18 19 19 18 17 17 18 18 16 17 19 19 18 19 18 18 16 14 11 11 11 11
8 10 11 10 9 9 9 9 9 9 8 8 7 7 8 9 10 11 13 14 14 15 15 14 13 12 9 5 3 3 3 3 4 5 6 7 7 8 9 9 8 9 11 11 10 9 8 7 8 9 9 11 13 13 12 12 10 11 12 14 16 18 18 18 19 20 20 18 15 16 18 18 19 20 19 19 18 16 13 11 10 10 10 10 11
9 9 11 10 8 7 7 7 7 8 8 7 7 8 8 8 9 9 10 12 12 11 12 14 14 14 13 10 7 8 8 8 8 9 9 9 10 10 11 11 11 11 13 12 11 11 11 10 10 11 11 12 13 13 12 11 11 12 12 14 16 18 18 18 18 19 18 15 13 13 16 18 18 18 17 14 11 8 8 8 9 9 9 10 11
9 7 8 9 8 6 4 3 7 9 10 8 6 6 8 8 8 8 8 9 9 6 7 12 13 13 13 12 11 11 12 11 11 10 9 9 9 10 11 12 11 11 12 12 10 11 11 10 10 9 9 9 10 12 12 13 14 15 14 14 16 17 17 17 16 16 15 14 13 13 14 15 15 15 13 10 7 7 8 9 10 10 9 8 7
3 3 4 7 9 6 7 5 7 10 10 9 7 6 7 8 8 6 5 7 8 5 5 10 12 11 11 11 11 12 12 12 12 10 7 7 6 7 9 11 10 8 9 9 8 9 10 10 10 11 11 10 11 12 13 14 16 16 15 16 16 15 14 14 15 14 13 12 12 12 13 13 13 13 11 10 9 10 10 10 9 7 5 3 3
0 1 1 5 10 8 6 6 9 11 9 8 7 7 8 8 7 6 3 7 11 10 8 7 7 8 8 7 10 11 12 12 12 10 6 6 8 8 9 9 8 6 6 6 5 7 9 10 9 11 13 13 13 15 15 15 17 17 15 15 15 13 11 12 13 14 12 10 10 11 12 12 12 11 10 10 9 6 4 3 2 2 4 5 4
6 7 4 7 10 11 7 5 7 8 8 6 4 6 8 7 7 8 7 6 8 9 7 6 7 8 6 5 8 9 10 9 8 8 7 6 9 8 6 5 4 3 4 4 3 3 5 6 7 9 11 11 12 14 15 15 16 17 16 14 14 13 12 12 13 14 14 12 11 10 10 9 9 8 6 5 4 5 5 5 5 5 6 8 8
9 12 7 5 7 9 9 5 5 6 8 7 5 5 7 6 6 7 8 6 5 5 5 5 7 7 6 4 5 6 9 9 7 7 7 5 8 7 5 5 5 4 5 6 6 5 6 7 9 11 11 10 10 12 14 14 14 15 14 13 12 11 10 10 12 13 14 13 11 9 7 6 5 4 6 8 10 9 8 8 7 4 3 3 6
6 10 9 6 6 7 7 6 5 5 6 7 6 5 6 6 6 6 6 5 6 6 5 5 7 8 8 4 2 5 8 9 7 5 5 6 7 7 7 8 8 8 8 9 9 9 10 11 11 11 10 10 10 11 12 13 13 12 11 10 10 9 8 9 9 10 11 11 9 6 5 4 6 9 10 9 9 8 9 9 8 6 4 3 4
5 6 6 7 8 6 4 5 7 6 4 4 5 5 6 5 4 5 7 7 7 7 6 5 8 11 8 2 4 5 7 7 5 3 4 6 6 7 8 10 10 10 11 11 11 11 11 11 11 10 9 9 10 10 11 12 13 11 9 8 9 9 8 7 6 6 6 6 4 4 6 8 10 10 9 9 9 9 7 6 6 7 8 7 6
6 5 3 3 5 4 3 6 8 7 4 2 4 7 7 5 4 5 8 8 6 5 4 4 7 9 6 2 6 6 6 6 4 4 4 5 7 7 8 9 10 11 11 11 11 11 12 12 13 13 13 12 11 11 11 10 11 11 10 9 8 8 7 5 3 3 2 1 5 7 8 9 9 8 8 8 8 7 6 6 5 4 4 4 5
5 5 3 1 2 4 4 3 2 1 1 3 3 8 8 5 4 5 6 7 6 5 4 4 4 5 5 4 3 4 4 4 4 5 6 7 7 7 7 8 9 9 10 10 11 11 13 14 15 15 16 17 17 18 16 12 8 8 8 8 7 7 5 2 4 3 4 7 9 9 8 8 8 8 8 7 5 4 5 6 5 3 3 3 4
5 3 2 1 2 3 3 1 3 3 4 4 6 9 6 3 3 4 4 5 5 4 4 4 4 5 6 5 2 2 4 5 5 6 6 6 6 5 6 7 7 7 8 9 10 11 12 13 14 14 16 17 18 20 20 18 14 10 6 5 4 3 1 5 8 8 9 11 10 7 5 5 6 7 6 5 4 5 5 5 5 4 4 5 5
4 2 1 1 1 2 1 1 4 6 7 8 8 7 4 2 1 2 3 5 5 4 4 4 5 6 7 6 4 4 6 5 4 5 6 5 4 4 5 5 6 6 7 8 9 9 10 11 12 12 14 15 16 17 18 18 18 15 10 6 4 4 5 7 9 11 12 11 9 7 3 3 4 3 3 3 4 4 4 6 6 6 6 6 5
2 1 1 1 1 1 1 1 2 2 4 5 3 3 2 1 1 1 2 5 7 5 3 3 4 6 7 7 7 5 5 5 4 5 5 4 3 3 4 4 4 5 5 6 6 7 8 9 9 10 11 12 13 14 14 15 16 16 15 12 10 9 8 6 5 9 9 8 7 6 3 2 2 1 1 1 0 2 3 5 6 7 7 7 7
2 2 1 1 0 0 0 1 1 1 2 1 0 1 1 2 4 5 5 6 7 6 3 2 3 4 5 6 6 5 4 3 2 2 2 2 2 3 3 2 2 3 3 4 5 5 6 7 8 8 9 9 10 11 11 12 13 13 14 14 13 11 9 7 4 4 4 3 4 5 4 2 2 2 2 2 3 5 6 6 5 5 6 5 5
3 2 0 1 1 0 1 2 2 0 0 2 2 0 1 2 4 5 5 4 3 3 2 1 1 3 4 5 4 3 4 5 4 2 0 2 2 2 2 2 0 2 3 3 4 5 6 7 7 8 8 8 8 9 9 9 10 10 10 10 10 10 8 7 5 3 3 3 3 5 6 6 5 5 6 7 8 9 11 11 10 9 8 6 4
1 0 0 1 2 1 1 1 1 1 2 2 2 2 2 3 2 4 3 1 2 2 1 2 2 1 4 5 5 4 2 1 1 1 2 3 4 3 3 3 3 4 3 3 3 5 6 8 8 8 7 8 8 8 8 8 7 7 6 5 5 5 5 3 2 1 1 3 4 6 7 8 8 8 10 12 13 14 15 15 14 12 11 11 10
2 2 2 2 2 2 2 2 2 3 3 3 3 4 5 5 2 1 1 0 2 3 2 2 3 3 2 3 4 4 4 4 3 1 2 3 2 3 4 5 4 3 2 2 3 5 7 8 7 7 7 8 8 7 7 7 7 6 5 4 3 2 2 1 2 3 4 6 7 8 9 10 10 11 12 14 14 14 12 11 10 9 9 9 8
3 3 3 3 3 3 4 4 3 3 4 4 4 5 6 4 3 3 4 4 2 2 3 3 3 3 4 4 3 4 4 3 2 1 2 3 1 1 2 2 1 1 2 3 4 5 6 6 7 7 7 7 7 7 7 8 8 8 7 6 5 4 3 2 2 3 4 5 5 6 7 7 7 7 8 9 11 10 9 8 6 4 4 3 2
Wind_Direction
214 211 187 159 153 159 160 159 164 167 168 172 173 172 171 173 176 174 171 171 166 161 166 169 162 157 152 145 149 159 162 153 146 150 145 132 142 147 125 121 128 124 124 128 143 157 147 145 153 154 157 157 149 142 135 132 135 142 151 156 170 177 171 167 165 162 170 181 185 191 182 164 170 185 191 189 195 201 187 186 202 199 195 196 182
189 188 164 149 155 162 160 158 162 165 165 166 168 168 169 176 179 173 169 170 165 163 170 162 145 143 146 145 152 156 155 157 153 147 144 145 148 131 116 129 149 143 131 125 126 129 133 147 153 153 161 154 144 143 136 138 151 156 175 189 180 180 172 167 169 166 171 180 184 186 175 165 177 195 210 205 200 206 196 190 204 208 203 205 195
170 170 162 160 166 169 163 157 158 161 159 156 157 161 165 169 171 170 171 169 161 164 170 155 142 149 150 150 153 147 152 156 148 149 157 148 136 128 134 156 151 130 126 125 119 123 138 158 154 151 152 138 135 149 143 147 161 155 169 195 188 182 176 173 175 173 175 178 180 186 182 177 189 204 216 218 208 207 203 193 203 220 216 203 198
169 174 175 175 174 170 163 153 151 154 153 153 158 164 169 169 167 169 170 163 159 167 165 145 145 155 152 152 148 144 153 150 143 159 160 140 136 144 153 154 135 119 125 129 128 137 152 156 148 149 144 132 140 165 156 157 171 155 162 180 183 186 182 185 192 187 185 182 179 192 197 185 191 208 216 222 217 206 208 205 201 225 229 210 211
177 176 177 178 172 168 162 155 154 153 152 158 165 165 166 166 165 166 163 158 162 166 154 142 152 158 149 149 148 147 154 147 146 159 151 140 145 146 138 133 126 127 138 138 138 140 121 116 139 154 150 141 152 173 167 166 158 147 167 185 181 175 172 184 198 191 189 191 185 198 210 193 188 207 220 226 220 201 207 220 206 207 224 233 243
177 172 175 175 171 169 165 160 160 155 151 159 166 166 165 163 159 159 158 157 159 157 148 145 154 152 144 147 150 149 148 144 149 156 148 145 145 141 137 136 141 150 148 143 147 145 133 130 150 165 157 150 157 170 177 186 153 144 161 172 177 183 172 169 191 198 194 198 194 201 216 208 192 203 220 227 222 204 203 215 219 213 223 236 246
173 170 172 170 171 173 168 163 161 155 154 159 164 165 163 158 157 156 154 155 154 152 152 150 149 147 145 150 153 148 143 144 150 151 148 148 148 151 151 149 154 152 142 142 145 137 142 155 168 178 168 165 170 173 184 198 180 167 176 167 162 186 193 177 190 211 202 198 204 204 215 223 206 201 218 225 222 220 210 208 213 221 228 238 247
175 173 169 168 171 172 167 163 160 157 157 158 160 162 154 148 157 157 153 158 155 152 155 151 145 145 148 152 152 144 143 150 152 149 153 156 156 159 155 152 157 147 139 157 153 134 140 161 166 178 175 175 181 183 192 201 192 185 192 190 170 173 197 192 193 209 203 200 213 210 213 228 223 209 214 219 220 224 222 214 214 220 228 237 246
172 168 165 169 172 170 167 164 162 161 161 158 160 163 152 147 160 157 151 158 155 151 158 151 143 146 153 152 151 151 159 165 160 158 162 161 157 158 152 150 157 149 144 162 154 137 143 160 167 188 189 191 200 202 210 211 204 200 202 205 203 194 197 202 205 216 218 210 215 218 217 226 232 225 218 220 225 228 228 224 222 225 230 236 243
166 164 166 172 173 174 174 171 167 166 164 160 162 163 153 149 160 158 151 155 153 152 161 153 143 149 156 154 158 169 174 174 172 171 168 162 157 156 152 151 158 155 149 150 145 144 166 182 190 200 205 209 214 218 226 223 213 215 214 215 220 218 212 213 215 225 236 233 227 231 228 226 233 237 230 227 232 234 232 228 224 226 231 236 242
162 162 168 173 174 176 177 177 175 172 167 161 158 158 155 152 155 156 150 151 153 154 161 158 149 152 160 162 171 184 187 179 182 185 175 170 169 160 155 164 174 169 160 159 166 180 200 211 217 220 222 224 223 226 234 235 233 232 228 223 224 225 224 224 222 227 237 242 240 241 240 237 238 243 245 244 241 239 238 235 230 229 229 232 236
160 163 168 171 174 179 182 180 178 173 169 164 159 158 157 152 150 152 153 153 153 151 156 162 157 154 164 171 178 190 196 187 186 192 185 181 184 175 163 167 177 174 177 188 201 219 231 236 240 245 249 246 239 236 237 242 247 249 247 242 237 233 234 234 232 231 233 236 240 241 241 242 242 243 247 249 244 240 242 241 236 233 232 233 235
154 164 171 173 175 181 186 185 179 171 167 165 165 164 161 156 156 159 157 154 154 152 153 162 161 158 173 188 194 201 206 200 196 200 198 189 191 187 173 168 172 186 210 223 233 248 262 271 274 279 287 273 254 251 255 257 256 257 260 260 253 247 246 247 248 247 244 242 242 242 242 242 242 240 240 241 240 238 240 242 238 236 237 237 237
132 146 158 168 175 181 186 187 181 174 173 173 170 166 159 157 162 165 160 155 157 157 157 161 163 164 171 184 197 206 209 208 204 207 210 206 206 208 201 193 193 207 234 251 266 280 288 291 288 288 292 285 275 271 269 264 259 257 264 273 272 266 260 257 256 255 254 253 250 249 249 249 248 246 243 243 245 242 242 245 241 236 238 241 241
110 119 125 131 142 157 176 185 178 172 179 183 180 174 170 169 171 171 168 164 163 165 168 168 168 172 172 171 180 190 191 195 198 203 214 218 220 228 233 230 232 247 265 272 281 293 300 301 295 291 291 286 282 280 276 268 260 259 269 281 285 281 276 271 269 265 261 259 258 256 254 253 254 254 250 249 251 251 250 250 246 240 240 244 243
96 100 107 115 125 135 148 169 174 173 178 184 185 184 186 187 186 184 183 180 173 173 179 178 175 181 184 178 178 181 175 178 195 205 220 232 238 245 251 253 256 266 279 286 292 296 299 300 294 288 286 282 281 284 283 275 264 260 267 275 276 275 276 277 278 277 275 272 268 265 262 259 258 259 258 256 257 260 256 251 248 246 243 243 244
89 86 87 93 115 137 142 141 146 157 171 182 187 188 189 189 188 185 183 177 173 174 181 187 188 191 195 192 188 190 191 201 226 246 253 256 258 258 259 261 265 272 279 286 291 289 285 286 286 284 284 284 286 288 282 271 261 256 260 266 268 269 270 271 272 273 275 277 275 272 268 265 262 262 263 262 260 262 261 255 250 247 244 243 244
81 79 75 70 76 99 122 127 125 130 142 159 177 185 189 191 187 180 171 165 166 172 180 190 196 197 201 203 202 203 209 216 232 257 269 269 266 266 268 268 269 273 276 280 283 280 279 282 285 286 288 290 290 287 277 264 258 258 260 263 267 268 268 271 273 273 274 275 275 273 270 267 265 263 264 264 263 263 263 259 251 244 243 242 238
75 78 79 76 74 74 81 94 106 116 123 130 149 168 181 188 183 172 165 165 170 176 182 188 194 197 202 211 219 226 233 236 240 251 262 265 263 264 266 267 269 272 275 279 282 285 290 294 291 289 291 293 292 285 277 270 269 271 271 270 272 274 273 274 276 278 279 277 275 273 270 269 268 266 266 267 268 267 265 261 256 248 244 240 233
74 79 88 96 94 87 81 77 78 82 88 93 100 113 143 177 180 173 166 173 183 191 190 189 195 202 207 217 231 244 250 250 249 252 254 257 259 262 264 266 270 274 277 280 282 283 290 300 301 296 291 289 288 287 287 284 281 279 277 273 275 278 279 279 279 279 280 279 276 273 272 272 270 270 272 272 271 269 265 261 259 254 247 241 236
84 82 87 99 106 104 100 95 88 83 79 77 77 75 77 117 154 164 173 187 208 223 220 214 218 228 236 240 247 257 263 262 259 253 250 250 255 261 265 268 271 272 272 272 269 272 279 288 293 293 286 280 285 289 289 287 284 282 279 276 276 278 280 282 282 281 280 278 276 275 274 273 271 271 275 275 270 266 262 259 257 254 248 243 239
98 96 93 96 102 106 108 109 108 105 102 97 90 81 73 79 92 98 101 109 117 134 163 193 216 230 238 241 244 249 252 253 250 238 236 240 247 256 262 264 265 268 269 261 254 265 276 276 272 277 281 283 288 290 288 286 285 284 281 280 279 279 280 281 282 281 278 276 276 276 275 274 276 277 277 273 267 264 262 259 255 251 247 245 241
98 103 102 100 101 103 106 108 108 108 112 113 108 100 96 97 94 82 73 76 84 91 100 116 137 151 153 147 150 170 181 177 161 154 175 212 228 237 250 257 258 263 270 270 269 275 282 283 281 283 286 289 292 294 294 292 291 288 285 284 283 282 282 283 283 282 279 277 275 275 275 277 280 279 273 267 265 265 261 256 251 248 246 245 240
92 95 97 99 99 100 100 101 102 103 104 107 108 106 108 111 110 103 97 97 95 91 90 98 106 110 113 110 102 93 82 36 339 305 268 258 258 257 263 274 279 280 278 277 278 278 277 279 281 284 286 289 292 294 295 295 294 292 290 287 287 287 288 290 289 287 285 283 281 279 279 279 277 272 265 262 263 263 257 250 247 244 241 239 234
81 80 77 76 76 79 85 92 99 103 105 109 108 104 104 110 114 114 113 110 106 102 104 105 99 98 107 106 90 60 20 318 279 278 272 272 279 290 297 300 305 305 298 291 287 285 284 285 288 290 291 291 292 293 295 296 295 294 294 293 291 291 295 297 292 283 280 283 284 279 274 270 266 261 260 261 260 258 254 248 241 237 236 235 231
61 65 67 69 66 64 67 73 82 88 97 112 117 118 123 132 137 136 132 124 115 108 108 111 109 109 112 107 101 117 173 199 234 259 271 277 286 300 308 313 312 302 296 295 298 301 300 301 305 308 307 305 302 301 301 300 297 296 297 297 295 294 297 300 292 278 270 270 271 267 261 260 260 257 255 255 253 252 252 249 244 239 234 228 223
43 44 46 54 60 64 66 70 75 74 71 85 110 125 129 134 142 147 147 143 137 133 136 140 136 128 117 109 132 193 194 207 236 250 260 273 283 293 303 307 302 293 293 298 303 305 305 307 314 319 321 323 323 322 323 321 314 307 304 304 305 303 300 300 300 291 280 272 267 264 264 264 262 257 251 248 246 246 245 244 245 243 231 216 212
53 48 53 55 52 52 59 66 73 79 73 70 81 84 62 72 123 146 154 157 156 158 164 164 159 152 147 153 182 204 199 210 233 244 251 264 274 285 295 297 288 284 287 291 295 300 305 309 315 322 330 335 334 334 336 335 328 323 318 314 314 314 311 309 311 305 290 277 269 266 263 260 255 250 245 241 238 237 236 238 240 235 220 211 213
71 80 92 90 77 66 63 64 63 63 61 59 60 61 57 57 80 124 154 167 177 187 187 182 185 185 180 185 204 218 219 228 246 261 266 269 275 283 291 295 290 287 291 296 302 309 315 322 330 342 349 345 337 334 334 327 324 326 323 317 315 319 323 324 319 308 295 284 274 267 260 254 248 241 236 233 231 231 233 234 230 218 210 213 217
45 62 83 95 92 84 82 81 72 50 40 47 51 51 48 51 60 73 90 119 156 189 200 200 207 214 210 208 219 236 251 254 260 274 283 288 295 300 306 313 317 318 319 320 322 325 333 346 359 358 348 334 319 317 324 328 330 328 321 317 318 322 325 324 319 312 305 295 283 272 262 253 245 234 227 229 231 229 225 222 217 212 213 216 211
50 52 61 73 77 76 80 85 85 74 50 38 37 39 42 45 52 59 63 68 75 80 95 138 178 200 207 207 206 218 243 278 300 304 308 314 314 314 317 320 329 346 348 342 345 357 2 360 351 341 333 323 314 312 313 315 321 323 318 318 322 321 318 317 318 316 315 307 290 275 261 247 232 220 216 220 221 213 205 204 206 208 208 205 202
92 75 66 60 62 66 67 69 77 81 74 55 40 38 41 43 46 51 53 55 56 53 54 63 74 86 111 130 123 115 112 349 323 318 330 344 352 2 10 10 16 18 14 17 29 28 12 350 331 324 322 321 321 319 314 314 320 325 323 321 317 310 307 310 314 315 318 317 300 276 257 236 217 211 211 212 210 204 199 199 203 208 208 209 213
95 102 91 73 63 67 67 64 67 73 74 70 65 54 43 39 43 48 49 50 50 46 42 42 40 40 46 65 84 77 59 23 11 16 24 36 54 66 61 55 51 36 30 35 35 18 356 342 338 331 322 319 317 312 309 310 311 313 315 311 307 304 304 306 310 313 315 313 298 272 252 234 219 213 209 204 203 206 205 202 206 214 219 224 228
62 88 94 83 71 71 79 93 96 85 74 74 77 74 65 49 38 39 42 40 37 39 42 40 33 30 35 45 57 57 50 40 36 45 60 68 71 72 65 55 46 37 33 32 22 5 355 352 349 342 340 341 334 321 313 309 302 299 301 300 302 309 314 315 319 321 316 304 285 263 247 234 224 216 210 207 211 218 214 214 224 233 239 244 243
42 63 83 83 70 49 39 96 122 108 90 82 75 73 79 76 60 56 58 44 26 21 42 41 30 22 29 45 58 59 54 47 42 52 75 81 74 74 71 57 46 44 40 28 14 7 2 354 346 340 338 337 328 316 312 310 306 306 309 308 309 317 324 328 332 331 319 299 281 266 254 245 237 229 224 227 233 229 226 236 247 251 253 250 236
75 86 94 100 91 53 4 20 104 114 97 81 72 61 66 74 71 70 95 95 76 60 49 43 34 20 21 45 67 70 58 46 38 44 71 82 68 71 72 57 44 47 45 29 16 13 3 346 334 329 324 321 318 315 315 315 313 316 325 328 324 322 326 336 342 338 321 301 288 283 277 267 254 243 237 237 236 238 248 258 258 249 240 225 200
294 12 111 129 111 84 31 38 91 102 85 73 89 91 75 69 59 45 78 113 93 71 52 39 18 352 354 36 75 75 59 44 35 30 39 59 52 51 60 58 49 46 42 30 29 29 14 356 340 330 326 328 329 329 331 332 327 327 337 344 339 333 338 347 347 339 330 319 310 302 291 274 255 242 240 240 239 243 252 245 204 126 86 67 42
11 27 70 130 110 85 72 81 99 94 69 53 76 88 77 76 69 54 58 83 85 71 57 28 349 334 350 57 86 75 61 56 42 13 4 41 59 56 53 57 59 51 30 14 13 26 8 345 326 316 317 324 327 329 339 348 342 334 337 343 345 348 354 353 344 334 328 323 317 307 290 270 255 245 234 210 164 126 104 96 89 79 68 48 23
12 15 35 125 115 74 59 68 98 96 75 57 52 62 69 73 67 57 58 65 69 71 59 24 354 345 3 56 95 85 70 66 42 356 351 45 74 67 45 36 37 31 21 10 1 350 331 317 312 311 313 317 317 320 332 346 347 341 337 336 339 347 352 347 338 329 323 318 313 304 287 268 242 193 153 135 125 115 97 80 73 78 91 33 353
30 19 26 70 90 64 46 51 71 85 79 69 65 67 76 78 69 63 65 61 55 57 44 3 338 331 333 339 101 92 72 62 46 18 25 66 78 63 43 37 35 30 24 16 7 357 345 335 330 324 319 317 316 318 326 335 341 343 337 328 327 333 335 331 329 327 323 318 310 289 253 208 165 146 138 129 117 100 83 71 59 45 35 21 345
62 36 23 42 55 53 33 30 43 61 87 97 94 88 81 76 76 82 81 70 59 58 48 9 349 343 339 327 146 107 75 70 76 76 67 62 58 51 43 38 36 31 24 17 12 7 2 359 359 358 351 340 329 322 318 319 323 330 331 326 327 331 327 322 328 341 338 321 287 221 184 166 154 144 133 119 106 93 78 59 28 359 350 354 352
66 42 3 18 42 53 42 27 40 70 98 104 110 107 89 54 37 65 77 75 69 62 54 26 0 354 2 116 150 136 106 98 115 128 104 65 48 47 44 37 33 30 28 26 27 29 33 37 40 39 33 24 13 358 341 323 312 312 319 326 336 339 333 329 348 9 0 217 176 164 159 159 154 137 117 110 108 95 66 35 8 341 331 349 352
79 49 16 6 48 68 72 39 23 119 289 325 71 102 93 64 54 67 72 76 74 60 50 46 17 9 40 95 152 182 170 156 142 118 89 59 45 45 42 37 35 36 37 40 44 47 49 50 49 47 44 40 38 33 26 16 355 328 319 322 331 335 338 19 69 87 145 162 158 157 163 162 144 117 103 105 105 81 53 26 1 330 283 289 308
98 65 19 22 48 67 80 343 328 14 33 41 79 92 86 79 103 94 77 80 80 63 50 48 31 33 62 85 117 180 163 153 136 107 80 54 45 52 52 47 46 47 49 52 51 51 52 51 48 46 44 40 38 37 36 33 30 22 3 336 325 327 48 106 109 127 155 164 163 167 173 157 128 107 98 95 76 48 24 351 342 346 320 298 296
92 77 17 38 49 73 101 329 334 5 33 49 69 78 65 42 123 132 126 116 98 64 43 46 44 49 58 59 63 102 118 123 121 104 82 56 48 65 72 67 60 55 53 54 51 48 48 48 43 38 35 32 30 32 34 35 37 39 41 40 50 74 88 104 128 150 163 169 172 177 162 90 89 81 55 57 67 50 359 319 318 326 310 293 294
79 90 94 89 49 79 96 0 322 347 34 43 63 97 85 14 340 0 99 113 105 86 56 49 60 68 63 46 37 57 94 111 113 104 84 63 64 91 93 82 73 65 56 48 43 39 37 36 32 27 23 23 23 24 26 30 35 41 47 56 67 74 72 77 126 162 171 176 181 183 168 102 109 113 43 35 214 261 284 299 320 329 314 302 307
139 119 102 173 163 133 263 288 283 116 87 45 298 180 192 307 330 2 40 81 91 86 69 49 65 80 78 64 47 33 25 36 72 102 100 93 100 110 107 90 64 53 46 36 31 29 24 19 17 15 12 13 16 17 18 24 29 34 42 50 57 66 74 79 98 141 159 165 178 192 208 244 267 272 279 266 257 267 275 284 302 312 306 315 341
141 119 97 225 225 283 299 293 288 217 34 310 311 86 180 284 341 19 46 71 71 62 50 9 47 90 97 90 80 56 20 10 11 13 5 189 186 172 166 173 303 356 7 12 16 17 11 3 359 357 357 1 5 8 10 16 21 27 36 42 45 51 63 76 88 110 142 167 196 222 244 268 286 284 271 262 262 272 281 283 278 272 269 276 294
89 89 177 237 248 258 284 303 291 260 258 289 319 321 249 250 314 7 26 354 308 289 251 277 296 176 140 125 121 131 152 160 54 353 299 246 222 227 247 270 296 312 321 337 352 357 357 355 352 351 353 358 1 2 4 8 13 20 28 34 36 38 46 55 63 90 199 234 255 266 273 282 285 278 271 271 273 278 284 286 281 273 266 264 266
334 302 293 295 288 277 274 266 257 268 270 264 280 288 265 233 220 316 348 278 293 288 280 318 326 303 243 177 163 177 208 215 190 184 306 290 249 249 278 294 305 314 323 343 350 350 353 356 355 354 357 360 0 3 7 11 14 19 23 24 22 16 358 315 290 280 271 271 277 280 281 284 285 281 280 285 290 294 299 302 298 289 277 266 261
314 299 294 291 276 267 268 254 236 257 273 260 257 276 271 235 204 248 254 240 251 306 297 283 293 309 303 283 243 215 228 237 203 183 280 290 301 322 305 306 347 32 2 352 351 351 353 355 355 358 3 9 14 20 25 27 30 32 35 37 38 34 23 357 319 298 293 295 297 296 295 299 301 296 291 291 293 300 315 327 337 359 23 13 326